Weather History for FACT - December, 2013

Change the Weather History Date:

Monday, December 2, 2013

  Actual Average Record
Temperature  
Mean Temperature 76 °F -  
Max Temperature 89 °F 74 °F 89 °F (2013)
Min Temperature 62 °F 57 °F 53 °F (1996)
Cooling Degree Days 10    
Growing Degree Days 26 (Base 50)    
Moisture  
Dew Point 55 °F    
Average Humidity 54    
Maximum Humidity 72    
Minimum Humidity 31    
Precipitation  
Precipitation 0.00 in - - ()
Sea Level Pressure  
Sea Level Pressure 29.92 in    
Wind  
Wind Speed 6 mph ()    
Max Wind Speed 20 mph    
Max Gust Speed -    
Visibility 19.0 miles    
Events      
Averages and records for this station are not official NWS values.
T = Trace of Precipitation, MM = Missing Value Source: Averaged Metar Reports

Daily Weather History Graph

Daily Weather History Graph

Search for Another Location

Airport or City:

Trip Planner

Search our weather history database for the weather conditions in past years. The results will help you decide how hot, cold, wet, or windy it might be!

Date:

Astronomy

Dec. 02, 2013 Rise Set
Actual Time 5:27 AM SAST 7:43 PM SAST
Civil Twilight 4:58 AM SAST 8:11 PM SAST
Nautical Twilight 4:23 AM SAST 8:46 PM SAST
Astronomical Twilight 3:45 AM SAST 9:25 PM SAST
Moon 4:55 AM SAST (12/2) 7:11 PM SAST (12/2)
Length of Visible Light 15h 12m
Length of Day
14h 15m
Waning Crescent, 1% of the Moon is Illuminated
Dec 2
Waning Crescent
Dec 3
New
Dec 9
First Quarter
Dec 17
Full
Dec 25
Last Quarter

Hourly Weather History & Observations

Time (SAST) Temp. Heat Index Dew Point Humidity Pressure Visibility Wind Dir Wind Speed Gust Speed Precip Events Conditions
12:00 AM 66.2 °F - 53.6 °F 64% 29.89 in - WSW 5.8 mph - N/A   Clear
1:00 AM 66.2 °F - 53.6 °F 64% 29.86 in - SW 6.9 mph - N/A   Clear
2:00 AM 65 °F - 53 °F 56% 29.86 in 25 mi South 11.5 mph - -  
2:00 AM 66.2 °F - 53.6 °F 64% 29.86 in - South 11.5 mph - N/A   Clear
3:00 AM 66.2 °F - 53.6 °F 64% 29.83 in - SSW 9.2 mph - N/A   Clear
4:00 AM 62.6 °F - 53.6 °F 72% 29.83 in - Variable 1.2 mph - N/A   Clear
5:00 AM 65 °F - 54 °F 58% 29.86 in 25 mi WSW 4.6 mph - -   Clear
5:00 AM 66.2 °F - 53.6 °F 64% 29.86 in - WSW 3.5 mph - N/A   Clear
6:00 AM 62.6 °F - 53.6 °F 72% 29.89 in - Variable 2.3 mph - N/A   Clear
7:00 AM 66.2 °F - 55.4 °F 68% 29.92 in - NE 3.5 mph - N/A   Clear
8:00 AM 73 °F - 56 °F 44% 29.93 in 19 mi NNE 3.5 mph - -   Scattered Clouds
8:00 AM 73.4 °F - 57.2 °F 57% 29.92 in - NNE 3.5 mph - N/A   Clear
9:00 AM 78.8 °F - 53.6 °F 42% 29.95 in - WNW 8.1 mph - N/A   Clear
10:00 AM 77.0 °F - 53.6 °F 44% 29.98 in - NW 18.4 mph - N/A   Clear
11:00 AM 81 °F - 58 °F 35% 29.97 in 19 mi North 8.1 mph - -   Mostly Cloudy
11:00 AM 80.6 °F 80.8 °F 57.2 °F 45% 29.95 in - North 9.2 mph - N/A   Clear
12:00 PM 86.0 °F 85.4 °F 59.0 °F 40% 29.95 in - WNW 4.6 mph - N/A   Clear
1:00 PM 87.8 °F 86.1 °F 55.4 °F 33% 29.95 in - Variable 6.9 mph - N/A   Clear
2:00 PM 78 °F - 53 °F 31% 29.97 in 19 mi NW 19.6 mph - -   Mostly Cloudy
2:00 PM 77.0 °F - 55.4 °F 47% 29.98 in - NW 18.4 mph - N/A   Clear
3:00 PM 69.8 °F - 57.2 °F 64% 29.98 in - NW 10.4 mph - N/A   Clear
4:00 PM 77.0 °F - 59.0 °F 54% 29.95 in - East 6.9 mph - N/A   Clear
5:00 PM 78 °F - 58 °F 40% 29.94 in 19 mi 2.3 mph - -   Clear
5:00 PM 78.8 °F - 59.0 °F 51% 29.92 in - Variable 2.3 mph - N/A   Clear
6:00 PM 82.4 °F 81.4 °F 53.6 °F 37% 29.92 in - WSW 5.8 mph - N/A   Clear
7:00 PM 71.6 °F - 55.4 °F 57% 29.95 in - NNW 9.2 mph - N/A   Clear
8:00 PM 72 °F - 56 °F 48% 29.94 in 19 mi 2.3 mph - -   Mostly Cloudy
8:00 PM 71.6 °F - 57.2 °F 60% 29.92 in - NNE 3.5 mph - N/A   Clear
9:00 PM 66.2 °F - 55.4 °F 68% 29.92 in - Variable 2.3 mph - N/A   Clear
10:00 PM 71.6 °F - 57.2 °F 60% 29.95 in - WSW 3.5 mph - N/A   Clear
11:00 PM 67 °F - 54 °F 53% 29.96 in 19 mi NNW 6.9 mph - -   Partly Cloudy
11:00 PM 68.0 °F - 55.4 °F 64% 29.95 in - North 5.8 mph - N/A   Clear